Time,TemperatureF,DewpointF,PressureIn,WindDirection,WindDirectionDegrees,WindSpeedMPH,WindSpeedGustMPH,Humidity,HourlyPrecipIn,Conditions,Clouds,dailyrainin,SoftwareType,DateUTC
2013-04-29 00:00:00,43.3,36.9,30.26,South,180,0.0,1.0,78,0.00,,---,0.00,VWS V13.01,2013-04-29 04:00:00,
2013-04-29 00:30:00,42.8,36.4,30.25,South,180,0.0,0.0,78,0.00,,---,0.00,VWS V13.01,2013-04-29 04:30:00,
2013-04-29 01:00:00,41.3,35.6,30.26,South,180,0.0,0.0,80,0.00,,---,0.00,VWS V13.01,2013-04-29 05:00:00,
2013-04-29 01:30:00,40.3,34.9,30.25,South,180,0.0,0.0,81,0.00,,---,0.00,VWS V13.01,2013-04-29 05:30:00,
2013-04-29 02:00:00,39.9,34.9,30.25,South,180,0.0,0.0,82,0.00,,---,0.00,VWS V13.01,2013-04-29 06:00:00,
2013-04-29 02:30:00,39.2,34.5,30.24,South,180,0.0,0.0,83,0.00,,---,0.00,VWS V13.01,2013-04-29 06:30:00,
2013-04-29 03:00:00,39.1,34.4,30.24,South,180,0.0,0.0,83,0.00,,---,0.00,VWS V13.01,2013-04-29 07:00:00,
2013-04-29 03:30:00,38.5,33.8,30.24,South,180,0.0,0.0,83,0.00,,---,0.00,VWS V13.01,2013-04-29 07:30:00,
2013-04-29 04:00:00,37.8,33.4,30.23,South,180,0.0,1.0,84,0.00,,---,0.00,VWS V13.01,2013-04-29 08:00:00,
2013-04-29 04:30:00,37.6,33.2,30.23,South,180,0.0,1.0,84,0.00,,---,0.00,VWS V13.01,2013-04-29 08:30:00,
2013-04-29 05:00:00,37.3,32.9,30.23,South,180,0.0,0.0,84,0.00,,---,0.00,VWS V13.01,2013-04-29 09:00:00,
2013-04-29 05:30:00,37.1,32.7,30.23,South,180,0.0,1.0,84,0.00,,---,0.00,VWS V13.01,2013-04-29 09:30:00,
2013-04-29 06:00:00,36.9,32.8,30.24,South,180,0.0,1.0,85,0.00,,---,0.00,VWS V13.01,2013-04-29 10:00:00,
2013-04-29 06:30:00,37.5,33.4,30.25,South,180,0.0,1.0,85,0.00,,---,0.00,VWS V13.01,2013-04-29 10:30:00,
2013-04-29 07:00:00,38.6,34.2,30.25,South,180,0.0,1.0,84,0.00,,---,0.00,VWS V13.01,2013-04-29 11:00:00,
2013-04-29 07:30:00,39.7,34.7,30.26,South,180,0.0,1.0,82,0.00,,---,0.00,VWS V13.01,2013-04-29 11:30:00,
2013-04-29 08:00:00,42.1,36.4,30.26,South,180,0.0,2.0,80,0.00,,---,0.00,VWS V13.01,2013-04-29 12:00:00,
2013-04-29 08:30:00,46.8,41.0,30.26,East,90,0.0,2.0,80,0.00,,---,0.00,VWS V13.01,2013-04-29 12:30:00,
2013-04-29 09:00:00,51.1,43.1,30.26,ENE,68,1.0,5.0,74,0.00,,---,0.00,VWS V13.01,2013-04-29 13:00:00,
2013-04-29 09:30:00,52.8,41.4,30.26,SSE,158,1.0,6.0,65,0.00,,---,0.00,VWS V13.01,2013-04-29 13:30:00,
2013-04-29 10:00:00,53.0,40.8,30.26,SE,135,2.0,7.0,63,0.00,,---,0.00,VWS V13.01,2013-04-29 14:00:00,
2013-04-29 10:30:00,53.6,40.5,30.26,SSE,158,2.0,6.0,61,0.00,,---,0.00,VWS V13.01,2013-04-29 14:30:00,
2013-04-29 11:00:00,55.0,41.4,30.26,SE,135,2.0,9.0,60,0.00,,---,0.00,VWS V13.01,2013-04-29 15:00:00,
2013-04-29 11:30:00,54.5,42.6,30.26,SSE,158,3.0,9.0,64,0.00,,---,0.00,VWS V13.01,2013-04-29 15:30:00,
2013-04-29 12:00:00,55.1,44.0,30.25,South,180,2.0,7.0,66,0.00,,---,0.00,VWS V13.01,2013-04-29 16:00:00,
2013-04-29 12:30:00,55.2,45.6,30.25,SE,135,3.0,6.0,70,0.00,,---,0.00,VWS V13.01,2013-04-29 16:30:00,
2013-04-29 13:00:00,55.2,44.8,30.24,SE,135,2.0,8.0,68,0.00,,---,0.00,VWS V13.01,2013-04-29 17:00:00,
2013-04-29 13:30:00,56.2,45.4,30.24,SE,135,3.0,7.0,67,0.00,,---,0.00,VWS V13.01,2013-04-29 17:30:00,
2013-04-29 14:00:00,56.5,45.7,30.24,ESE,112,3.0,10.0,67,0.00,,---,0.00,VWS V13.01,2013-04-29 18:00:00,
2013-04-29 14:30:00,57.1,45.5,30.23,South,180,3.0,11.0,65,0.00,,---,0.00,VWS V13.01,2013-04-29 18:30:00,
2013-04-29 15:00:00,57.0,45.4,30.22,SE,135,3.0,8.0,65,0.00,,---,0.00,VWS V13.01,2013-04-29 19:00:00,
2013-04-29 15:30:00,57.4,44.5,30.21,SE,135,3.0,9.0,62,0.00,,---,0.00,VWS V13.01,2013-04-29 19:30:00,
2013-04-29 16:00:00,58.0,45.1,30.21,SE,135,3.0,11.0,62,0.00,,---,0.00,VWS V13.01,2013-04-29 20:00:00,
2013-04-29 16:30:00,57.2,44.7,30.20,SE,135,3.0,11.0,63,0.00,,---,0.00,VWS V13.01,2013-04-29 20:30:00,
2013-04-29 17:00:00,56.6,42.9,30.20,South,180,3.0,11.0,60,0.00,,---,0.00,VWS V13.01,2013-04-29 21:00:00,
2013-04-29 17:30:00,56.3,43.5,30.21,South,180,3.0,15.0,62,0.00,,---,0.00,VWS V13.01,2013-04-29 21:30:00,
2013-04-29 18:00:00,55.2,44.0,30.21,South,180,3.0,11.0,66,0.00,,---,0.00,VWS V13.01,2013-04-29 22:00:00,
2013-04-29 18:30:00,53.7,44.2,30.22,SSE,158,2.0,11.0,70,0.00,,---,0.00,VWS V13.01,2013-04-29 22:30:00,
2013-04-29 19:00:00,51.7,43.0,30.22,SSE,158,2.0,9.0,72,0.00,,---,0.00,VWS V13.01,2013-04-29 23:00:00,
2013-04-29 19:30:00,50.7,43.1,30.23,SE,135,1.0,5.0,75,0.00,,---,0.00,VWS V13.01,2013-04-29 23:30:00,
2013-04-29 20:00:00,49.7,42.5,30.23,SE,135,0.0,3.0,76,0.00,,---,0.00,VWS V13.01,2013-04-30 00:00:00,
2013-04-29 20:30:00,48.5,42.0,30.24,ESE,112,0.0,3.0,78,0.00,,---,0.00,VWS V13.01,2013-04-30 00:30:00,
2013-04-29 21:00:00,47.5,41.7,30.25,ESE,112,0.0,0.0,80,0.00,,---,0.00,VWS V13.01,2013-04-30 01:00:00,
2013-04-29 21:30:00,46.2,41.0,30.25,ESE,112,0.0,1.0,82,0.00,,---,0.00,VWS V13.01,2013-04-30 01:30:00,
2013-04-29 22:00:00,45.0,40.5,30.25,ESE,112,0.0,1.0,84,0.00,,---,0.00,VWS V13.01,2013-04-30 02:00:00,
2013-04-29 22:30:00,44.0,39.8,30.25,ESE,112,0.0,1.0,85,0.00,,---,0.00,VWS V13.01,2013-04-30 02:30:00,
2013-04-29 23:00:00,43.6,39.7,30.24,ESE,112,0.0,1.0,86,0.00,,---,0.00,VWS V13.01,2013-04-30 03:00:00,
2013-04-29 23:30:00,43.5,39.9,30.25,ESE,112,0.0,2.0,87,0.00,,---,0.00,VWS V13.01,2013-04-30 03:30:00,